User: anonymous   Login
Location: New Plymouth
(39.0670°S, 174.0830°E)
Time: 00:39:23
(UTC+12:00)
Language:

STRAND 1 - Orbit

View from above orbital plane
View from above orbital plane
View from above satellite
View from above satellite

Ground track
Ground track

The orbit data is extracted from the following two-line orbital elements,

1 39090U 13009E   21131.59536430 -.00000008  00000-0  12125-4 0  9991
2 39090  98.4309 334.6643 0009863  34.9369 325.2462 14.35173136429750
Epoch (UTC): 11 May 2021 14:17:19
Eccentricity: 0.0009863
inclination: 98.4309°
perigee height: 767 km
apogee height: 781 km
right ascension of ascending node: 334.6643°
argument of perigee: 34.9369°
revolutions per day: 14.35173136
mean anomaly at epoch: 325.2462°
orbit number at epoch: 42975

The dashed part of the orbit path shows where the satellite is in the earth's shadow,  

DLR